,,PA_Meas_PMT16A,,PR_Meas_QMR101_102,,RH_Meas_QMH101,,SR_Meas_QMS101,,TA_Meas_QMH101,,GenWind,,GenWind,
time,status,PA,status,PR,status,RH,status,SR,status,TA,status,DirAvg,status,SpdAvg,
2009-08-29, 00:00:04,VALID,919.265,VALID,0,VALID,92.4568,VALID,0,VALID,19.7403,VALID,9,VALID,0,
2009-08-29, 00:01:04,VALID,919.247,VALID,0,VALID,92.3577,VALID,0,VALID,19.7403,VALID,9,VALID,0,
2009-08-29, 00:02:04,VALID,919.232,VALID,0,VALID,92.3729,VALID,0,VALID,19.7403,VALID,9,VALID,0,
2009-08-29, 00:03:04,VALID,919.195,VALID,0,VALID,92.0832,VALID,0,VALID,19.7013,VALID,9,VALID,0,
2009-08-29, 00:04:04,VALID,919.205,VALID,0,VALID,91.3895,VALID,0,VALID,19.6428,VALID,9,VALID,0,
2009-08-29, 00:05:04,VALID,919.198,VALID,0,VALID,91.9308,VALID,0,VALID,19.6038,VALID,9,VALID,0,
2009-08-29, 00:06:04,VALID,919.201,VALID,0,VALID,91.7859,VALID,0,VALID,19.5858,VALID,9,VALID,0,
2009-08-29, 00:07:04,VALID,919.192,VALID,0,VALID,92.0299,VALID,0,VALID,19.5063,VALID,9,VALID,0,
2009-08-29, 00:08:04,VALID,919.174,VALID,0,VALID,92.5483,VALID,0,VALID,19.4673,VALID,9,VALID,0,
2009-08-29, 00:09:04,VALID,919.184,VALID,0,VALID,92.5102,VALID,0,VALID,19.4283,VALID,9,VALID,0,
2009-08-29, 00:10:04,VALID,919.147,VALID,0,VALID,92.4644,VALID,0,VALID,19.3893,VALID,9,VALID,0,
2009-08-29, 00:11:04,VALID,919.129,VALID,0,VALID,92.0832,VALID,0,VALID,19.3503,VALID,9,VALID,0,
2009-08-29, 00:12:04,VALID,919.138,VALID,0,VALID,92.6931,VALID,0,VALID,19.3308,VALID,9,VALID,0,
2009-08-29, 00:13:04,VALID,919.107,VALID,0,VALID,92.8303,VALID,0,VALID,19.3113,VALID,9,VALID,0,
2009-08-29, 00:14:04,VALID,919.105,VALID,0,VALID,92.6169,VALID,0,VALID,19.2933,VALID,9,VALID,0,
2009-08-29, 00:15:04,VALID,919.109,VALID,0,VALID,93.3259,VALID,0,VALID,19.2933,VALID,9,VALID,0.185547,
2009-08-29, 00:16:04,VALID,919.044,VALID,0,VALID,93.0743,VALID,0,VALID,19.2334,VALID,9,VALID,0.00351562,
2009-08-29, 00:17:04,VALID,919.061,VALID,0,VALID,93.5546,VALID,0.107441,VALID,19.2348,VALID,9,VALID,0,
2009-08-29, 00:18:04,VALID,919.042,VALID,0,VALID,93.6384,VALID,0,VALID,19.1749,VALID,9,VALID,0,
2009-08-29, 00:19:04,VALID,919.045,VALID,0,VALID,93.1276,VALID,0,VALID,19.1359,VALID,9,VALID,0.381641,
2009-08-29, 00:20:04,VALID,919.023,VALID,0,VALID,93.2115,VALID,0,VALID,19.1359,VALID,9,VALID,0.539844,
2009-08-29, 00:21:04,VALID,919.018,VALID,0,VALID,92.7465,VALID,0,VALID,19.0579,VALID,9,VALID,0.54375,
2009-08-29, 00:22:04,VALID,918.989,VALID,0,VALID,93.0514,VALID,0,VALID,19.0384,VALID,9,VALID,0.317578,
2009-08-29, 00:23:04,VALID,918.983,VALID,0,VALID,93.6155,VALID,0,VALID,19.0384,VALID,9,VALID,0.267969,
2009-08-29, 00:24:04,VALID,918.954,VALID,0,VALID,93.2268,VALID,0,VALID,18.9994,VALID,9,VALID,0.254297,
2009-08-29, 00:25:04,VALID,918.942,VALID,0,VALID,94.2559,VALID,0,VALID,19.0579,VALID,9,VALID,0.411719,
2009-08-29, 00:26:04,VALID,918.918,VALID,0,VALID,93.9129,VALID,0.107441,VALID,19.0579,VALID,9,VALID,0.464844,
2009-08-29, 00:27:04,VALID,918.938,VALID,0,VALID,93.7451,VALID,0,VALID,19.1178,VALID,9,VALID,0.348828,
2009-08-29, 00:28:04,VALID,918.908,VALID,0,VALID,93.2725,VALID,0,VALID,19.1164,VALID,9,VALID,0.208594,
2009-08-29, 00:29:04,VALID,918.922,VALID,0,VALID,92.5406,VALID,0,VALID,19.1178,VALID,9,VALID,0.0210938,
2009-08-29, 00:30:04,VALID,918.883,VALID,0,VALID,93.9205,VALID,0,VALID,19.2348,VALID,9,VALID,0.419531,
2009-08-29, 00:31:04,VALID,918.872,VALID,0,VALID,94.1644,VALID,0,VALID,19.2528,VALID,9,VALID,0.219141,
2009-08-29, 00:32:04,VALID,918.848,VALID,0,VALID,94.2635,VALID,0,VALID,19.2723,VALID,9,VALID,0.413672,
2009-08-29, 00:33:04,VALID,918.866,VALID,0,VALID,94.4541,VALID,0.107441,VALID,19.3113,VALID,9,VALID,0.397656,
2009-08-29, 00:34:04,VALID,918.848,VALID,0,VALID,94.5304,VALID,0,VALID,19.3308,VALID,9,VALID,0.336328,
2009-08-29, 00:35:04,VALID,918.831,VALID,0,VALID,94.6447,VALID,0,VALID,19.3908,VALID,9,VALID,0.397656,
2009-08-29, 00:36:04,VALID,918.796,VALID,0,VALID,94.6371,VALID,0,VALID,19.3893,VALID,9,VALID,0.330859,
2009-08-29, 00:37:04,VALID,918.79,VALID,0,VALID,94.2788,VALID,0.107441,VALID,19.3893,VALID,9,VALID,0.133203,
2009-08-29, 00:38:04,VALID,918.805,VALID,0,VALID,93.3564,VALID,0.107441,VALID,19.3503,VALID,9,VALID,0.287891,
2009-08-29, 00:39:04,VALID,918.799,VALID,0,VALID,91.7021,VALID,0,VALID,19.3323,VALID,9,VALID,0.289453,
2009-08-29, 00:40:04,VALID,918.784,VALID,0,VALID,91.9003,VALID,0,VALID,19.2918,VALID,9,VALID,0.450391,
2009-08-29, 00:41:04,VALID,918.768,VALID,0,VALID,92.068,VALID,0,VALID,19.1749,VALID,9,VALID,0.553516,
2009-08-29, 00:42:04,VALID,918.761,VALID,0,VALID,91.8393,VALID,0,VALID,19.0189,VALID,9,VALID,0.665625,
2009-08-29, 00:43:04,VALID,918.734,VALID,0,VALID,93.1429,VALID,0,VALID,18.9229,VALID,9,VALID,0.726953,
2009-08-29, 00:44:04,VALID,918.73,VALID,0,VALID,93.7985,VALID,0,VALID,18.8045,VALID,9,VALID,0.810156,
2009-08-29, 00:45:04,VALID,918.744,VALID,0,VALID,94.2407,VALID,0,VALID,18.7669,VALID,9,VALID,0.824609,
2009-08-29, 00:46:04,VALID,918.759,VALID,0,VALID,94.7972,VALID,0,VALID,18.7669,VALID,9,VALID,0.892187,
2009-08-29, 00:47:04,VALID,918.78,VALID,0,VALID,94.8124,VALID,0,VALID,18.7655,VALID,9,VALID,0.634375,
2009-08-29, 00:48:04,VALID,918.8,VALID,0,VALID,94.8048,VALID,0,VALID,18.7655,VALID,9,VALID,0.728125,
2009-08-29, 00:49:04,VALID,918.795,VALID,0,VALID,94.9039,VALID,0,VALID,18.7864,VALID,9,VALID,0.799219,
2009-08-29, 00:50:04,VALID,918.814,VALID,0,VALID,94.2483,VALID,0,VALID,18.7474,VALID,9,VALID,0.81875,
2009-08-29, 00:51:04,VALID,918.802,VALID,0,VALID,94.4694,VALID,0,VALID,18.7474,VALID,9,VALID,0.803516,
2009-08-29, 00:52:04,VALID,918.79,VALID,0,VALID,94.7362,VALID,0,VALID,18.707,VALID,9,VALID,0.746094,
2009-08-29, 00:53:04,VALID,918.773,VALID,0,VALID,94.9115,VALID,0,VALID,18.7265,VALID,9,VALID,0.954297,
2009-08-29, 00:54:04,VALID,918.746,VALID,0,VALID,95.0335,VALID,0,VALID,18.746,VALID,9,VALID,0.978125,
2009-08-29, 00:55:04,VALID,918.756,VALID,0,VALID,94.4999,VALID,0,VALID,18.6875,VALID,9,VALID,0.709375,
2009-08-29, 00:56:04,VALID,918.709,VALID,0,VALID,94.9878,VALID,0,VALID,18.6875,VALID,9,VALID,0.707422,
2009-08-29, 00:57:04,VALID,918.717,VALID,0,VALID,95.2775,VALID,0,VALID,18.7474,VALID,9,VALID,0.542969,
2009-08-29, 00:58:04,VALID,918.706,VALID,0,VALID,95.468,VALID,0,VALID,18.785,VALID,9,VALID,0.371094,
2009-08-29, 00:59:04,VALID,918.678,VALID,0,VALID,95.3232,VALID,0,VALID,18.8045,VALID,9,VALID,0.123047,
2009-08-29, 01:00:04,VALID,918.687,VALID,0,VALID,94.9039,VALID,0,VALID,18.7265,VALID,9,VALID,0.00507812,
2009-08-29, 01:01:04,VALID,918.651,VALID,0,VALID,95.247,VALID,0,VALID,18.7655,VALID,9,VALID,0.366406,
2009-08-29, 01:02:04,VALID,918.668,VALID,0,VALID,95.4757,VALID,0.107441,VALID,18.8045,VALID,9,VALID,0.229687,
2009-08-29, 01:03:04,VALID,918.646,VALID,0,VALID,94.9496,VALID,0,VALID,18.7864,VALID,9,VALID,0.0996094,
2009-08-29, 01:04:04,VALID,918.622,VALID,0,VALID,95.2317,VALID,0,VALID,18.7864,VALID,9,VALID,0.292188,
2009-08-29, 01:05:04,VALID,918.641,VALID,0,VALID,94.6905,VALID,0,VALID,18.7084,VALID,9,VALID,0.317187,
2009-08-29, 01:06:04,VALID,918.623,VALID,0,VALID,94.9268,VALID,0.107441,VALID,18.6875,VALID,9,VALID,0.333203,
2009-08-29, 01:07:04,VALID,918.628,VALID,0,VALID,95.468,VALID,0,VALID,18.7655,VALID,9,VALID,0.38125,
2009-08-29, 01:08:04,VALID,918.625,VALID,0,VALID,95.247,VALID,0,VALID,18.7474,VALID,9,VALID,0.0953125,
2009-08-29, 01:09:04,VALID,918.598,VALID,0,VALID,95.3994,VALID,0.107441,VALID,18.7864,VALID,9,VALID,0.0328125,
2009-08-29, 01:10:04,VALID,918.593,VALID,0,VALID,95.4147,VALID,0,VALID,18.7655,VALID,9,VALID,0.127734,
2009-08-29, 01:11:04,VALID,918.579,VALID,0,VALID,95.4833,VALID,0,VALID,18.7655,VALID,9,VALID,0.148438,
2009-08-29, 01:12:04,VALID,918.579,VALID,0,VALID,95.4909,VALID,0,VALID,18.8254,VALID,9,VALID,0,
2009-08-29, 01:13:04,VALID,918.582,VALID,0,VALID,95.5824,VALID,0,VALID,18.8449,VALID,9,VALID,0.263672,
2009-08-29, 01:14:04,VALID,918.572,VALID,0,VALID,95.6357,VALID,0,VALID,18.8839,VALID,9,VALID,0.628906,
2009-08-29, 01:15:04,VALID,918.549,VALID,0,VALID,94.1187,VALID,0,VALID,18.629,VALID,9,VALID,0.573047,
2009-08-29, 01:16:04,VALID,918.527,VALID,0,VALID,95.0945,VALID,0,VALID,18.6485,VALID,9,VALID,0.501172,
2009-08-29, 01:17:04,VALID,918.506,VALID,0,VALID,94.8124,VALID,0,VALID,18.6694,VALID,9,VALID,0.430078,
2009-08-29, 01:18:04,VALID,918.484,VALID,0,VALID,95.2622,VALID,0,VALID,18.6095,VALID,9,VALID,0.922266,
2009-08-29, 01:19:04,VALID,918.487,VALID,0,VALID,95.2546,VALID,0,VALID,18.6095,VALID,9,VALID,1.02813,
2009-08-29, 01:20:04,VALID,918.519,VALID,0,VALID,95.5062,VALID,0,VALID,18.668,VALID,9,VALID,1.23125,
2009-08-29, 01:21:04,VALID,918.531,VALID,0,VALID,95.3308,VALID,0,VALID,18.7084,VALID,9,VALID,0.889844,
2009-08-29, 01:22:04,VALID,918.554,VALID,0,VALID,95.1479,VALID,0,VALID,18.7279,VALID,9,VALID,1.02109,
2009-08-29, 01:23:04,VALID,918.563,VALID,0,VALID,95.0716,VALID,0,VALID,18.7474,VALID,9,VALID,1.06797,
2009-08-29, 01:24:04,VALID,918.552,VALID,0,VALID,94.8429,VALID,0,VALID,18.746,VALID,9,VALID,0.503516,
2009-08-29, 01:25:04,VALID,918.531,VALID,0,VALID,94.7591,VALID,0,VALID,18.7655,VALID,9,VALID,0.355469,
2009-08-29, 01:26:04,VALID,918.552,VALID,0,VALID,94.8582,VALID,0,VALID,18.785,VALID,9,VALID,0.357812,
2009-08-29, 01:27:04,VALID,918.558,VALID,0,VALID,94.5685,VALID,0,VALID,18.746,VALID,9,VALID,0.607031,
2009-08-29, 01:28:04,VALID,918.569,VALID,0,VALID,94.6523,VALID,0,VALID,18.7669,VALID,9,VALID,0.738672,
2009-08-29, 01:29:04,VALID,918.556,VALID,0,VALID,94.5532,VALID,0,VALID,18.7474,VALID,9,VALID,0.491406,
2009-08-29, 01:30:04,VALID,918.542,VALID,0,VALID,94.3474,VALID,0,VALID,18.7265,VALID,9,VALID,0.511719,
2009-08-29, 01:31:04,VALID,918.563,VALID,0,VALID,94.3017,VALID,0,VALID,18.7279,VALID,9,VALID,0.525,
2009-08-29, 01:32:04,VALID,918.584,VALID,0,VALID,93.9281,VALID,0,VALID,18.6889,VALID,9,VALID,0.517969,
2009-08-29, 01:33:04,VALID,918.553,VALID,0,VALID,93.89,VALID,0,VALID,18.668,VALID,9,VALID,0.523828,
2009-08-29, 01:34:04,VALID,918.564,VALID,0,VALID,93.9052,VALID,0,VALID,18.6875,VALID,9,VALID,0.946484,
2009-08-29, 01:35:04,VALID,918.563,VALID,0,VALID,93.7833,VALID,0,VALID,18.6889,VALID,9,VALID,1.07695,
2009-08-29, 01:36:04,VALID,918.588,VALID,0,VALID,93.5927,VALID,0,VALID,18.6889,VALID,9,VALID,0.960156,
2009-08-29, 01:37:04,VALID,918.579,VALID,0,VALID,93.5469,VALID,0,VALID,18.6875,VALID,9,VALID,1.11445,
2009-08-29, 01:38:04,VALID,918.594,VALID,0,VALID,93.2649,VALID,0,VALID,18.746,VALID,9,VALID,1.42266,
2009-08-29, 01:39:04,VALID,918.583,VALID,0,VALID,92.777,VALID,0,VALID,18.785,VALID,9,VALID,1.28437,
2009-08-29, 01:40:04,VALID,918.601,VALID,0,VALID,92.5025,VALID,0,VALID,18.8434,VALID,9,VALID,1.3,
2009-08-29, 01:41:04,VALID,918.597,VALID,0,VALID,92.2128,VALID,0,VALID,18.8824,VALID,8,VALID,1.26914,
2009-08-29, 01:42:04,VALID,918.548,VALID,0,VALID,91.9994,VALID,0,VALID,18.9424,VALID,8,VALID,1.11602,
2009-08-29, 01:43:04,VALID,918.553,VALID,0,VALID,91.9384,VALID,0,VALID,18.9019,VALID,8,VALID,1.35586,
2009-08-29, 01:44:04,VALID,918.557,VALID,0,VALID,91.7554,VALID,0,VALID,18.9034,VALID,8,VALID,1.175,
2009-08-29, 01:45:04,VALID,918.529,VALID,0,VALID,91.542,VALID,0,VALID,18.8629,VALID,8,VALID,0.892969,
2009-08-29, 01:46:04,VALID,918.548,VALID,0,VALID,92.068,VALID,0,VALID,18.8644,VALID,8,VALID,0.898438,
2009-08-29, 01:47:04,VALID,918.557,VALID,0,VALID,92.3653,VALID,0,VALID,18.8254,VALID,8,VALID,0.816016,
2009-08-29, 01:48:04,VALID,918.582,VALID,0,VALID,92.411,VALID,0,VALID,18.8254,VALID,8,VALID,0.676172,
2009-08-29, 01:49:04,VALID,918.55,VALID,0,VALID,92.1823,VALID,0,VALID,18.8449,VALID,8,VALID,0.692187,
2009-08-29, 01:50:04,VALID,918.536,VALID,0,VALID,92.1366,VALID,0,VALID,18.8449,VALID,8,VALID,0.398047,
2009-08-29, 01:51:04,VALID,918.574,VALID,0,VALID,92.1519,VALID,0.107441,VALID,18.824,VALID,8,VALID,0.439063,
2009-08-29, 01:52:04,VALID,918.546,VALID,0,VALID,91.9994,VALID,0,VALID,18.8434,VALID,8,VALID,0.0164062,
2009-08-29, 01:53:04,VALID,918.537,VALID,0,VALID,91.6716,VALID,0,VALID,18.8449,VALID,8,VALID,0.0902344,
2009-08-29, 01:54:04,VALID,918.497,VALID,0,VALID,91.9689,VALID,0,VALID,18.8449,VALID,8,VALID,0.502734,
2009-08-29, 01:55:04,VALID,918.53,VALID,0,VALID,92.0832,VALID,0,VALID,18.824,VALID,8,VALID,0.169922,
2009-08-29, 01:56:04,VALID,918.496,VALID,0,VALID,91.8698,VALID,0,VALID,18.8254,VALID,8,VALID,0,
2009-08-29, 01:57:04,VALID,918.499,VALID,0,VALID,91.4734,VALID,0,VALID,18.8254,VALID,8,VALID,0.226172,
2009-08-29, 01:58:04,VALID,918.49,VALID,0,VALID,92.2205,VALID,0,VALID,18.785,VALID,8,VALID,0.251953,
2009-08-29, 01:59:04,VALID,918.439,VALID,0,VALID,92.9904,VALID,0,VALID,18.7669,VALID,8,VALID,0.111328,
2009-08-29, 02:00:04,VALID,918.466,VALID,0,VALID,92.4415,VALID,0,VALID,18.7265,VALID,8,VALID,0,
2009-08-29, 02:01:04,VALID,918.418,VALID,0,VALID,92.5025,VALID,0.107441,VALID,18.707,VALID,8,VALID,0.0136719,
2009-08-29, 02:02:04,VALID,918.422,VALID,0,VALID,92.6626,VALID,0,VALID,18.7084,VALID,8,VALID,0.389453,
2009-08-29, 02:03:04,VALID,918.438,VALID,0,VALID,92.8608,VALID,0,VALID,18.668,VALID,8,VALID,0.127344,
2009-08-29, 02:04:04,VALID,918.429,VALID,0,VALID,92.8761,VALID,0,VALID,18.6485,VALID,8,VALID,0,
2009-08-29, 02:05:04,VALID,918.4,VALID,0,VALID,93.4555,VALID,0,VALID,18.7084,VALID,8,VALID,0.000390625,
2009-08-29, 02:06:04,VALID,918.413,VALID,0,VALID,93.6765,VALID,0,VALID,18.6875,VALID,8,VALID,0.211719,
2009-08-29, 02:07:04,VALID,918.45,VALID,0,VALID,93.4173,VALID,0,VALID,18.668,VALID,8,VALID,0.244922,
2009-08-29, 02:08:04,VALID,918.47,VALID,0,VALID,93.2115,VALID,0,VALID,18.6499,VALID,8,VALID,0.210938,
2009-08-29, 02:09:04,VALID,918.454,VALID,0,VALID,93.4555,VALID,0,VALID,18.629,VALID,8,VALID,0.414453,
2009-08-29, 02:10:04,VALID,918.47,VALID,0,VALID,93.7985,VALID,0,VALID,18.629,VALID,8,VALID,0.153125,
2009-08-29, 02:11:04,VALID,918.465,VALID,0,VALID,93.8595,VALID,0,VALID,18.6304,VALID,8,VALID,0,
2009-08-29, 02:12:04,VALID,918.453,VALID,0,VALID,93.9357,VALID,0,VALID,18.6109,VALID,8,VALID,0,
2009-08-29, 02:13:04,VALID,918.459,VALID,0,VALID,94.1721,VALID,0,VALID,18.6095,VALID,8,VALID,0,
2009-08-29, 02:14:04,VALID,918.437,VALID,0,VALID,94.2483,VALID,0,VALID,18.6095,VALID,8,VALID,0,
2009-08-29, 02:15:04,VALID,918.464,VALID,0,VALID,93.8061,VALID,0,VALID,18.572,VALID,8,VALID,0,
2009-08-29, 02:16:04,VALID,918.469,VALID,0,VALID,93.2191,VALID,0,VALID,18.533,VALID,8,VALID,0.250391,
2009-08-29, 02:17:04,VALID,918.461,VALID,0,VALID,93.4859,VALID,0,VALID,18.5121,VALID,8,VALID,0.324609,
2009-08-29, 02:18:04,VALID,918.428,VALID,0,VALID,93.5622,VALID,0,VALID,18.494,VALID,8,VALID,0.369531,
2009-08-29, 02:19:04,VALID,918.447,VALID,0,VALID,93.8366,VALID,0,VALID,18.4926,VALID,8,VALID,0.346094,
2009-08-29, 02:20:04,VALID,918.422,VALID,0,VALID,94.073,VALID,0,VALID,18.533,VALID,8,VALID,0.347656,
2009-08-29, 02:21:04,VALID,918.422,VALID,0,VALID,94.3931,VALID,0,VALID,18.5914,VALID,8,VALID,0.203906,
2009-08-29, 02:22:04,VALID,918.443,VALID,0,VALID,93.9434,VALID,0,VALID,18.5914,VALID,8,VALID,0.2375,
2009-08-29, 02:23:04,VALID,918.442,VALID,0,VALID,93.7223,VALID,0,VALID,18.572,VALID,8,VALID,0.302734,
2009-08-29, 02:24:04,VALID,918.43,VALID,0,VALID,93.2801,VALID,0,VALID,18.5135,VALID,8,VALID,0.209766,
2009-08-29, 02:25:04,VALID,918.41,VALID,0,VALID,93.6842,VALID,0,VALID,18.5135,VALID,8,VALID,0.428906,
2009-08-29, 02:26:04,VALID,918.395,VALID,0,VALID,93.8747,VALID,0,VALID,18.494,VALID,8,VALID,0.314453,
2009-08-29, 02:27:04,VALID,918.386,VALID,0,VALID,93.5012,VALID,0,VALID,18.4355,VALID,8,VALID,0.249609,
2009-08-29, 02:28:04,VALID,918.366,VALID,0,VALID,93.5164,VALID,0,VALID,18.3951,VALID,8,VALID,0.366406,
2009-08-29, 02:29:04,VALID,918.365,VALID,0,VALID,93.3945,VALID,0,VALID,18.3965,VALID,8,VALID,0.344141,
2009-08-29, 02:30:04,VALID,918.319,VALID,0,VALID,93.4859,VALID,0,VALID,18.3366,VALID,8,VALID,0.502344,
2009-08-29, 02:31:04,VALID,918.345,VALID,0,VALID,93.3716,VALID,0,VALID,18.3185,VALID,8,VALID,0.420312,
2009-08-29, 02:32:04,VALID,918.344,VALID,0,VALID,93.5927,VALID,0,VALID,18.299,VALID,8,VALID,0.470313,
2009-08-29, 02:33:04,VALID,918.328,VALID,0,VALID,93.4402,VALID,0,VALID,18.2406,VALID,8,VALID,0.341016,
2009-08-29, 02:34:04,VALID,918.316,VALID,0,VALID,94.1339,VALID,0,VALID,18.2796,VALID,8,VALID,0.483594,
2009-08-29, 02:35:04,VALID,918.322,VALID,0,VALID,93.6537,VALID,0,VALID,18.2211,VALID,8,VALID,0.311719,
2009-08-29, 02:36:04,VALID,918.317,VALID,0,VALID,93.5851,VALID,0,VALID,18.2016,VALID,8,VALID,0.455078,
2009-08-29, 02:37:04,VALID,918.33,VALID,0,VALID,94.1187,VALID,0,VALID,18.2016,VALID,8,VALID,0.277734,
2009-08-29, 02:38:04,VALID,918.35,VALID,0,VALID,94.66,VALID,0,VALID,18.2406,VALID,8,VALID,0.288281,
2009-08-29, 02:39:04,VALID,918.355,VALID,0,VALID,94.6981,VALID,0,VALID,18.2601,VALID,8,VALID,0.154297,
2009-08-29, 02:40:04,VALID,918.351,VALID,0,VALID,94.881,VALID,0,VALID,18.299,VALID,8,VALID,0.0714844,
2009-08-29, 02:41:04,VALID,918.348,VALID,0,VALID,94.7591,VALID,0,VALID,18.2977,VALID,8,VALID,0.0316406,
2009-08-29, 02:42:04,VALID,918.33,VALID,0,VALID,94.9725,VALID,0,VALID,18.377,VALID,8,VALID,0.243359,
2009-08-29, 02:43:04,VALID,918.351,VALID,0,VALID,95.125,VALID,0,VALID,18.4355,VALID,8,VALID,0,
2009-08-29, 02:44:04,VALID,918.316,VALID,0,VALID,94.9954,VALID,0,VALID,18.4536,VALID,8,VALID,0,
2009-08-29, 02:45:04,VALID,918.326,VALID,0,VALID,94.7209,VALID,0,VALID,18.494,VALID,8,VALID,0,
2009-08-29, 02:46:04,VALID,918.298,VALID,0,VALID,94.9192,VALID,0,VALID,18.572,VALID,8,VALID,0,
2009-08-29, 02:47:04,VALID,918.298,VALID,0,VALID,95.1097,VALID,0,VALID,18.6499,VALID,8,VALID,0,
2009-08-29, 02:48:04,VALID,918.285,VALID,0,VALID,95.0259,VALID,0,VALID,18.6889,VALID,8,VALID,0.149219,
2009-08-29, 02:49:04,VALID,918.258,VALID,0,VALID,94.5532,VALID,0,VALID,18.7293,VALID,8,VALID,0.127344,
2009-08-29, 02:50:04,VALID,918.248,VALID,0,VALID,93.8824,VALID,0,VALID,18.6694,VALID,8,VALID,0.235156,
2009-08-29, 02:51:04,VALID,918.238,VALID,0,VALID,93.4097,VALID,0,VALID,18.6485,VALID,8,VALID,0,
2009-08-29, 02:52:04,VALID,918.195,VALID,0,VALID,93.1429,VALID,0,VALID,18.6499,VALID,8,VALID,0.0832031,
2009-08-29, 02:53:04,VALID,918.214,VALID,0,VALID,94.5075,VALID,0,VALID,18.7279,VALID,8,VALID,0.167187,
2009-08-29, 02:54:04,VALID,918.187,VALID,0,VALID,94.3245,VALID,0,VALID,18.7084,VALID,8,VALID,0.210547,
2009-08-29, 02:55:04,VALID,918.206,VALID,0,VALID,94.1721,VALID,0,VALID,18.668,VALID,8,VALID,0.268359,
2009-08-29, 02:56:04,VALID,918.177,VALID,0,VALID,94.3245,VALID,0,VALID,18.6694,VALID,8,VALID,0.294531,
2009-08-29, 02:57:04,VALID,918.19,VALID,0,VALID,94.0882,VALID,0,VALID,18.6694,VALID,8,VALID,0.208984,
2009-08-29, 02:58:04,VALID,918.161,VALID,0,VALID,94.4008,VALID,0,VALID,18.6499,VALID,8,VALID,0.402344,
2009-08-29, 02:59:04,VALID,918.183,VALID,0,VALID,93.7528,VALID,0,VALID,18.5914,VALID,8,VALID,0.454297,
2009-08-29, 03:00:04,VALID,918.158,VALID,0,VALID,94.2788,VALID,0,VALID,18.5914,VALID,8,VALID,0.535156,
2009-08-29, 03:01:04,VALID,918.173,VALID,0,VALID,94.5609,VALID,0,VALID,18.5511,VALID,8,VALID,0.543359,
2009-08-29, 03:02:04,VALID,918.171,VALID,0,VALID,94.7286,VALID,0,VALID,18.5525,VALID,8,VALID,0.562891,
2009-08-29, 03:03:04,VALID,918.162,VALID,0,VALID,94.881,VALID,0,VALID,18.5525,VALID,8,VALID,0.627734,
2009-08-29, 03:04:04,VALID,918.146,VALID,0,VALID,94.9954,VALID,0,VALID,18.5914,VALID,8,VALID,0.654297,
2009-08-29, 03:05:05,VALID,918.159,VALID,0,VALID,94.7972,VALID,0,VALID,18.5914,VALID,8,VALID,0.645703,
2009-08-29, 03:06:05,VALID,918.17,VALID,0,VALID,94.6447,VALID,0,VALID,18.59,VALID,8,VALID,0.664844,
2009-08-29, 03:07:05,VALID,918.157,VALID,0,VALID,94.4465,VALID,0,VALID,18.6513,VALID,8,VALID,0.652734,
2009-08-29, 03:08:05,VALID,918.164,VALID,0,VALID,94.4008,VALID,0,VALID,18.6694,VALID,8,VALID,0.56875,
2009-08-29, 03:09:05,VALID,918.156,VALID,0,VALID,94.0425,VALID,0,VALID,18.6499,VALID,8,VALID,0.476563,
2009-08-29, 03:10:05,VALID,918.165,VALID,0,VALID,94.1187,VALID,0,VALID,18.6694,VALID,8,VALID,0.470313,
2009-08-29, 03:11:05,VALID,918.127,VALID,0,VALID,94.6981,VALID,0,VALID,18.7279,VALID,8,VALID,0.555859,
2009-08-29, 03:12:05,VALID,918.108,VALID,0,VALID,94.538,VALID,0,VALID,18.7669,VALID,8,VALID,0.416406,
2009-08-29, 03:13:05,VALID,918.129,VALID,0,VALID,94.294,VALID,0,VALID,18.7864,VALID,8,VALID,0.351563,
2009-08-29, 03:14:05,VALID,918.118,VALID,0,VALID,94.1263,VALID,0,VALID,18.8059,VALID,8,VALID,0.323438,
2009-08-29, 03:15:05,VALID,918.102,VALID,0,VALID,93.6384,VALID,0,VALID,18.785,VALID,8,VALID,0.310156,
2009-08-29, 03:16:05,VALID,918.095,VALID,0,VALID,93.5012,VALID,0,VALID,18.8045,VALID,8,VALID,0.285937,
2009-08-29, 03:17:05,VALID,918.071,VALID,0,VALID,93.303,VALID,0,VALID,18.8449,VALID,8,VALID,0.260938,
2009-08-29, 03:18:05,VALID,918.062,VALID,0,VALID,92.9676,VALID,0,VALID,18.8644,VALID,8,VALID,0.651172,
2009-08-29, 03:19:05,VALID,918.036,VALID,0,VALID,91.8088,VALID,0,VALID,18.9619,VALID,8,VALID,0.662109,
2009-08-29, 03:20:05,VALID,918.003,VALID,0,VALID,91.0236,VALID,0,VALID,19.0593,VALID,8,VALID,0.549609,
2009-08-29, 03:21:05,VALID,918.024,VALID,0,VALID,91.1379,VALID,0,VALID,19.0398,VALID,8,VALID,0.740234,
2009-08-29, 03:22:05,VALID,918.017,VALID,0,VALID,91.3361,VALID,0,VALID,19.0398,VALID,8,VALID,0.701953,
2009-08-29, 03:23:05,VALID,917.99,VALID,0,VALID,90.9702,VALID,0,VALID,18.9424,VALID,8,VALID,0.585547,
2009-08-29, 03:24:05,VALID,917.995,VALID,0,VALID,91.5267,VALID,0,VALID,18.8644,VALID,8,VALID,0.480078,
2009-08-29, 03:25:05,VALID,918.023,VALID,0,VALID,91.6335,VALID,0,VALID,18.7669,VALID,8,VALID,0.370313,
2009-08-29, 03:26:05,VALID,918.024,VALID,0,VALID,91.7783,VALID,0,VALID,18.7098,VALID,8,VALID,0.164063,
2009-08-29, 03:27:05,VALID,918.002,VALID,0,VALID,92.2128,VALID,0,VALID,18.6708,VALID,8,VALID,0.0207031,
2009-08-29, 03:28:05,VALID,917.978,VALID,0,VALID,92.0299,VALID,0,VALID,18.5914,VALID,8,VALID,0,
2009-08-29, 03:29:05,VALID,918.014,VALID,0,VALID,92.2357,VALID,0,VALID,18.5539,VALID,8,VALID,0.373437,
2009-08-29, 03:30:05,VALID,917.971,VALID,0,VALID,92.2281,VALID,0,VALID,18.4745,VALID,8,VALID,0.269531,
2009-08-29, 03:31:05,VALID,918.029,VALID,0,VALID,92.9218,VALID,0,VALID,18.4355,VALID,8,VALID,0.624609,
2009-08-29, 03:32:05,VALID,918.022,VALID,0,VALID,92.9371,VALID,0,VALID,18.3575,VALID,8,VALID,0.594141,
2009-08-29, 03:33:05,VALID,918.008,VALID,0,VALID,92.7007,VALID,0,VALID,18.299,VALID,8,VALID,0.499609,
2009-08-29, 03:34:05,VALID,918.015,VALID,0,VALID,93.6918,VALID,0,VALID,18.2601,VALID,8,VALID,0.838672,
2009-08-29, 03:35:05,VALID,918.019,VALID,0,VALID,94.1644,VALID,0,VALID,18.2211,VALID,8,VALID,0.642578,
2009-08-29, 03:36:05,VALID,918.01,VALID,0,VALID,93.8824,VALID,0,VALID,18.1626,VALID,8,VALID,0.230078,
2009-08-29, 03:37:05,VALID,917.973,VALID,0,VALID,93.5851,VALID,0,VALID,18.0651,VALID,8,VALID,0.228516,
2009-08-29, 03:38:05,VALID,917.98,VALID,0,VALID,93.4631,VALID,0,VALID,18.0067,VALID,8,VALID,0,
2009-08-29, 03:39:05,VALID,917.987,VALID,0,VALID,93.7756,VALID,0,VALID,17.9872,VALID,8,VALID,0,
2009-08-29, 03:40:05,VALID,917.984,VALID,0,VALID,93.8671,VALID,0,VALID,17.9677,VALID,8,VALID,0,
2009-08-29, 03:41:05,VALID,917.988,VALID,0,VALID,94.2712,VALID,0,VALID,17.9872,VALID,8,VALID,0,
2009-08-29, 03:42:05,VALID,917.997,VALID,0,VALID,94.5456,VALID,0,VALID,17.9663,VALID,8,VALID,0,
2009-08-29, 03:43:05,VALID,918.014,VALID,0,VALID,94.4999,VALID,0,VALID,17.9677,VALID,8,VALID,0,
2009-08-29, 03:44:05,VALID,918.023,VALID,0,VALID,94.5227,VALID,0,VALID,17.9468,VALID,8,VALID,0,
2009-08-29, 03:45:05,VALID,918.012,VALID,0,VALID,94.4313,VALID,0,VALID,17.9482,VALID,8,VALID,0.396094,
2009-08-29, 03:46:05,VALID,918.033,VALID,0,VALID,94.9573,VALID,0,VALID,18.0457,VALID,8,VALID,0.549219,
2009-08-29, 03:47:05,VALID,918.021,VALID,0,VALID,94.4541,VALID,0,VALID,18.1041,VALID,8,VALID,0.182031,
2009-08-29, 03:48:05,VALID,918.009,VALID,0,VALID,93.7223,VALID,0,VALID,18.0262,VALID,8,VALID,0.357422,
2009-08-29, 03:49:05,VALID,917.985,VALID,0,VALID,94.2864,VALID,0,VALID,18.0651,VALID,8,VALID,0.287891,
2009-08-29, 03:50:05,VALID,917.98,VALID,0,VALID,94.6676,VALID,0,VALID,18.1041,VALID,8,VALID,0.367578,